This is the latest recevied weather packets stored in our database for station/object F5LKO-13. If no packets are shown the sender has not sent any weather packets the latest 10 day(s).
| Time | Temp. | Humidity | Pressure | Rain* | Wind** | Luminosity | Snow |
|---|---|---|---|---|---|---|---|
| 1777889564 | 18.89° C | 99% | 1014.1 hPa | 0 mm | - | 4 W/m² | - |
| 1777889250 | 19.44° C | 99% | 1014.2 hPa | 0 mm | - | 2 W/m² | - |
| 1777888944 | 21.67° C | 99% | 1014.1 hPa | 0 mm | - | 8 W/m² | - |
| 1777888637 | 23.89° C | 99% | 1014.2 hPa | 0.51 mm | - | 5 W/m² | - |
| 1777888331 | 21.67° C | 99% | 1014 hPa | 0.51 mm | - | 84 W/m² | - |
| 1777888025 | 20.56° C | 99% | 1014.1 hPa | 0.51 mm | - | 99 W/m² | - |
| 1777887790 | 20° C | 99% | 1014.1 hPa | 0.51 mm | - | 108 W/m² | - |
| 1777887336 | 20° C | 99% | 1014.2 hPa | 0 mm | - | 21 W/m² | - |
| 1777887030 | 20° C | 99% | 1014.2 hPa | 0 mm | - | 19 W/m² | - |
| 1777886724 | 20.56° C | 99% | 1014.1 hPa | 0 mm | - | 17 W/m² | - |
| 1777886427 | 19.44° C | 99% | 1014 hPa | 0 mm | - | 31 W/m² | - |
| 1777886112 | 20.56° C | 99% | 1014 hPa | 0 mm | - | 14 W/m² | - |
| 1777885805 | 20° C | 99% | 1014.1 hPa | 0 mm | - | 11 W/m² | - |
| 1777885500 | 20° C | 99% | 1014.1 hPa | 0 mm | - | 24 W/m² | - |
| 1777885194 | 20° C | 99% | 1014 hPa | 0 mm | - | 18 W/m² | - |
| 1777884887 | 20° C | 99% | 1014.1 hPa | 1.02 mm | - | 12 W/m² | - |
| 1777884594 | 20° C | 99% | 1014 hPa | 1.02 mm | - | 7 W/m² | - |
| 1777884274 | 18.89° C | 99% | 1013.9 hPa | 1.02 mm | - | 12 W/m² | - |
| 1777883967 | 17.78° C | 99% | 1013.9 hPa | 1.02 mm | - | 93 W/m² | - |
| 1777883662 | 17.22° C | 99% | 1013.8 hPa | 1.02 mm | - | 7 W/m² | - |
| 1777883356 | 17.78° C | 99% | 1013.8 hPa | 0.51 mm | - | 2 W/m² | - |
| 1777883050 | 17.78° C | 99% | 1014 hPa | 0 mm | - | 1 W/m² | - |
| 1777882752 | 17.22° C | 99% | 1014 hPa | 0 mm | - | 4 W/m² | - |
| 1777882438 | 16.67° C | 99% | 1014 hPa | 0 mm | - | 4 W/m² | - |
| 1777882132 | 17.22° C | 99% | 1013.9 hPa | 0 mm | - | 3 W/m² | - |
* Rain latest hour (hover to see other rain measurements)
** Current wind speed in m/s (hover to see current wind gust speed)